CAPE
0 0 0 0 0 0 0 0 0 0 0 0 0 0 0 0 0 0 0 0 0 0 0 0 0 0 0 1 2 0 0 1 30 0 0 0 0 0 7 29 24 28 41
0 0 0 0 0 0 0 0 0 0 0 0 0 0 0 0 0 0 0 0 0 0 0 0 0 1 0 0 0 0 0 25 0 0 0 0 0 0 0 0 4 15 13
0 0 0 0 0 0 0 0 0 0 0 0 0 0 0 0 0 0 0 0 0 0 0 0 0 0 0 0 0 0 2 0 0 0 0 0 0 0 0 0 0 0 2
0 0 0 0 0 0 0 0 0 0 0 0 0 0 0 0 0 0 0 0 0 0 0 0 0 0 0 0 0 0 21 10 6 11 11 6 0 0 0 0 0 0 0
0 0 0 0 0 0 0 0 0 0 0 0 0 0 0 0 0 0 0 0 0 0 0 0 0 0 0 0 3 3 16 25 20 28 13 6 8 2 2 3 5 2 4
0 0 0 0 0 0 0 0 0 0 0 0 0 0 0 0 0 0 0 0 0 0 0 0 0 0 0 3 7 12 19 20 17 16 11 7 6 4 4 11 13 10 3
0 0 0 0 0 0 0 0 0 0 0 0 0 0 0 0 0 0 0 0 0 0 0 0 0 0 1 3 3 11 12 17 15 9 8 3 2 0 17 1 7 4 8
0 0 0 0 0 0 0 0 0 0 0 0 0 0 0 0 0 0 0 0 0 0 0 0 1 3 0 8 5 3 1 0 0 2 8 1 1 6 1 11 10 5 4
0 0 0 0 0 0 0 0 0 0 0 0 0 0 0 0 0 0 1 0 0 0 0 0 16 1 9 13 17 5 0 1 1 1 18 14 12 3 5 6 3 4 2
0 0 0 0 0 0 0 0 0 0 0 0 0 0 0 0 0 0 2 2 3 0 0 6 0 9 14 6 6 9 2 0 0 1 2 5 2 0 1 4 2 2 1
0 0 0 0 0 0 0 0 0 0 0 0 0 0 0 0 0 0 4 8 4 8 0 0 0 15 33 2 2 1 2 6 6 1 0 0 3 2 1 0 2 1 2
0 0 0 0 0 0 0 0 0 0 0 0 0 0 0 0 0 1 6 9 11 14 2 0 0 2 0 0 1 3 3 7 0 1 1 3 2 3 1 2 1 0 0
0 0 0 0 0 0 0 0 0 0 0 0 0 0 0 0 0 0 0 17 21 11 0 15 0 0 0 0 0 0 0 0 0 1 2 3 2 1 1 1 0 0 0
0 0 0 0 0 0 0 0 0 0 0 0 0 2 0 0 0 0 1 10 6 7 21 1 0 0 0 0 0 0 0 1 0 2 1 1 0 2 0 0 0 0 0
0 0 0 0 0 0 0 0 0 0 0 1 2 3 2 1 0 6 21 11 16 18 13 0 0 0 0 0 0 0 0 0 0 0 0 0 0 1 0 0 0 0 0
0 0 0 0 0 0 0 0 0 0 0 0 1 5 2 6 10 16 16 21 33 3 0 0 0 1 1 2 2 2 0 0 0 0 0 0 0 3 0 0 0 0 0
0 0 0 0 0 0 0 0 0 0 0 0 0 1 4 4 6 10 18 24 0 0 0 0 0 1 1 1 2 1 0 0 0 0 0 0 0 0 0 0 0 0 0
0 0 0 0 0 0 0 0 0 0 0 0 0 0 4 5 3 8 16 1 0 0 0 3 1 1 1 2 1 0 0 0 0 0 0 0 0 0 0 0 0 0 0
0 0 0 0 0 0 0 0 0 0 0 0 0 0 0 0 3 17 0 0 0 0 0 1 1 1 3 1 0 0 0 0 0 0 0 0 0 0 0 0 0 0 0
0 0 0 0 0 0 0 0 0 0 0 1 2 1 0 0 3 0 0 0 0 1 0 1 0 1 1 0 0 0 0 0 0 0 0 0 0 0 0 0 0 0 0
0 0 0 0 0 0 0 0 0 0 2 1 0 0 6 5 0 0 0 0 0 0 0 1 1 0 0 0 0 0 0 0 0 0 0 0 0 0 0 0 0 0 0
0 0 0 0 0 0 1 1 0 0 2 1 1 0 1 0 0 0 0 0 0 0 1 0 0 0 0 0 0 0 0 0 0 0 0 0 0 0 0 0 0 0 0
0 0 0 0 0 0 0 0 0 0 1 1 1 0 0 0 0 0 0 0 0 1 1 0 0 0 0 0 0 0 0 0 0 0 0 0 0 0 0 0 0 0 0
0 0 0 0 0 0 0 0 0 0 0 1 0 1 0 0 0 0 0 0 0 0 0 0 0 0 0 0 0 0 0 1 0 0 0 0 0 0 0 0 0 0 0
0 0 0 0 0 0 0 0 0 0 0 0 1 0 0 0 0 0 0 0 0 0 0 0 0 0 0 0 0 0 0 1 0 0 0 0 0 0 0 0 0 0 0
0 0 0 0 0 0 0 0 0 0 0 0 0 0 0 0 0 0 0 0 0 0 0 0 0 0 0 0 0 1 2 1 0 0 0 0 0 0 0 0 0 0 0
CIN
0 0 0 0 0 0 0 0 0 0 0 0 0 0 0 0 0 0 0 0 0 0 0 0 0 0 0 0 -1 0 0 0 0 0 0 0 0 0 -3 -2 -2 -1 -1
0 0 0 0 0 0 0 0 0 0 0 0 0 0 0 0 0 0 0 0 0 0 0 0 0 -2 0 0 0 0 0 -2 0 0 0 0 0 0 0 0 0 0 0
0 0 0 0 0 0 0 0 0 0 0 0 0 0 0 0 0 0 0 0 0 0 0 0 0 0 0 0 0 0 -1 -5 0 0 0 0 0 0 0 0 0 0 0
0 0 0 0 0 0 0 0 0 0 0 0 0 0 0 0 0 0 0 0 0 0 0 0 0 0 0 0 0 0 0 -4 -1 -1 0 0 0 0 0 0 0 0 0
0 0 0 0 0 0 0 0 0 0 0 0 0 0 0 0 0 0 0 0 0 0 0 0 0 0 0 0 -1 -2 -2 -1 0 0 0 0 0 0 0 -1 0 -1 -1
0 0 0 0 0 0 0 0 0 0 0 0 0 0 0 0 0 0 0 0 0 0 0 0 0 0 0 -1 -1 -2 -3 -3 -2 0 0 0 0 0 -1 0 -4 0 -1
0 0 0 0 0 0 0 0 0 0 0 0 0 0 0 0 0 0 0 0 0 0 0 0 0 0 -1 -2 -3 -2 -2 -3 -3 -2 0 0 0 0 0 -1 0 0 0
0 0 0 0 0 0 0 0 0 0 0 0 0 0 0 0 0 0 0 0 0 0 0 0 -1 -3 0 -3 -3 -5 -8 0 0 -1 -7 -3 0 -20 0 0 -1 0 0
0 0 0 0 0 0 0 0 0 0 0 0 0 0 0 0 0 0 -3 0 0 0 0 -1 -1 -3 -1 -5 -2 -1 0 -2 0 -1 -1 -2 -2 -1 -1 0 0 0 -1
0 0 0 0 0 0 0 0 0 0 0 0 0 0 0 0 0 -1 -2 -3 -1 -1 -6 -1 -1 -2 -2 -6 -5 -1 -2 0 0 0 0 -3 -6 -1 -1 -1 -1 0 0
0 0 0 0 0 0 0 0 0 0 0 0 0 0 0 0 0 -2 -2 -4 -1 -1 -1 0 0 -1 -2 -4 -5 -6 -3 -4 0 0 0 0 -1 -2 -1 -1 -2 -1 0
0 0 0 0 0 0 0 0 0 0 0 0 0 0 0 0 -1 -2 -2 -3 -3 -1 -3 0 0 0 -3 0 -2 -3 -3 -4 0 0 0 0 0 0 -1 -2 -1 0 0
0 0 0 0 0 0 0 0 0 0 0 0 0 0 0 0 0 0 -2 -1 -1 -3 -1 -4 0 0 0 0 0 -1 -3 -1 0 0 0 0 0 -1 -1 -1 -1 0 0
0 0 0 0 0 0 0 0 0 0 0 0 0 0 0 0 0 0 -9 -2 -3 -2 -2 -16 0 0 0 0 0 0 0 -1 -1 0 0 0 -1 0 0 0 0 0 0
0 0 0 0 0 0 0 0 0 0 0 -2 -1 -2 -1 -1 -1 -5 -3 -3 -3 -2 -6 0 0 0 -1 0 0 -1 -1 -1 0 0 -1 0 0 0 -2 0 0 0 0
0 0 0 0 0 0 0 0 0 0 0 0 -1 -2 -3 -4 -4 -4 -4 -4 -2 -5 0 0 0 -1 0 0 0 0 -1 0 0 0 0 0 0 -1 0 0 0 0 0
0 0 0 0 0 0 0 0 0 0 0 0 0 -3 -2 -3 -4 -3 -2 -2 -2 0 0 0 0 0 0 -1 -1 -1 0 0 0 0 0 0 0 0 0 0 0 0 0
0 0 0 0 0 0 0 0 0 0 0 0 0 -2 -3 -3 -3 -4 -2 -2 0 0 0 0 0 0 -1 -1 -1 0 0 0 0 0 0 0 0 0 0 0 0 0 0
0 0 0 0 0 0 0 0 0 0 0 0 -1 0 -1 0 -2 0 0 0 0 0 0 0 -1 -1 -1 -1 -1 0 0 0 0 0 0 0 0 0 0 0 0 0 0
0 0 0 0 0 0 0 0 0 0 -1 -1 -1 -1 0 -1 -7 0 0 0 -1 -1 -1 -1 -1 -2 -1 -1 0 0 0 0 0 0 0 0 0 0 0 0 0 0 0
0 0 0 0 0 0 0 0 0 -1 0 0 0 -1 -3 -6 0 0 0 -1 -1 -1 -1 -1 -2 -1 0 0 0 0 0 0 0 0 0 0 0 0 0 0 0 0 0
0 0 0 0 0 0 -1 -1 0 0 0 0 -1 0 -3 0 0 0 -1 -1 0 0 -1 -1 -2 0 0 0 0 0 0 0 0 0 0 0 0 0 0 0 0 0 0
0 0 0 0 0 -1 0 -1 0 0 0 -1 0 0 0 0 -1 0 0 0 -1 0 0 -1 0 0 0 0 0 0 0 0 0 0 0 0 0 0 0 0 0 0 0
0 0 0 0 0 0 0 0 0 0 0 0 0 0 0 -1 0 0 0 0 0 0 0 0 0 0 0 0 0 0 0 0 0 0 0 0 0 0 0 0 0 0 0
0 0 0 0 0 0 0 0 0 0 0 0 -1 0 0 -2 0 0 0 0 0 0 0 0 0 0 0 0 0 0 0 0 0 0 0 0 0 0 0 0 0 0 0
0 0 0 0 0 0 0 0 0 0 0 0 0 -1 0 0 0 0 0 -1 0 0 0 0 0 0 0 0 0 0 0 0 0 0 0 0 0 0 0 0 0 0 0
Wind_Speed
30 32 35 37 39 39 40 41 42 42 43 44 45 46 47 48 48 49 49 48 50 49 49 49 48 47 45 44 42 43 46 44 49 52 49 52 54 53 52 51 52 54 54
32 34 37 39 40 41 42 43 42 43 43 45 46 47 48 48 49 49 49 50 49 50 49 48 48 46 48 45 46 49 47 42 46 52 54 52 51 53 53 55 53 52 54
33 36 39 40 41 42 43 43 43 44 45 46 47 48 49 49 50 49 49 50 49 50 47 49 52 50 51 50 50 50 48 45 47 50 56 52 53 52 52 52 55 55 52
35 38 39 41 42 42 42 43 44 45 46 47 47 48 49 49 49 48 50 50 50 47 49 50 52 52 53 54 53 52 49 52 52 51 53 56 54 52 51 54 58 53 56
36 38 40 41 41 42 43 44 44 45 46 47 48 49 49 48 47 51 51 51 51 52 52 53 52 54 55 53 54 55 54 54 55 55 56 57 56 55 55 53 56 56 54
36 39 40 42 42 43 44 45 46 46 47 48 48 49 50 48 51 51 51 51 52 53 55 55 55 55 54 57 56 56 56 57 57 57 57 59 58 55 51 52 51 56 62
38 40 41 42 42 43 44 45 46 47 48 48 48 48 50 50 50 52 53 52 53 53 53 54 54 52 54 53 55 56 54 54 53 55 55 52 51 48 48 53 55 54 57
40 41 40 40 42 43 45 45 46 47 48 49 49 49 50 50 52 53 53 52 51 49 49 49 49 50 50 53 55 54 52 53 52 50 48 46 43 42 46 51 52 56 56
39 39 39 41 43 44 45 46 46 47 49 49 48 49 50 50 51 51 52 50 48 47 46 45 45 47 49 53 53 55 56 52 50 52 52 52 49 52 51 48 47 49 51
38 38 39 40 41 44 44 46 45 46 47 47 49 48 48 49 47 49 49 46 46 45 42 42 44 46 49 52 56 52 52 54 54 53 49 45 43 43 45 43 43 46 47
36 37 38 40 42 42 43 44 46 47 47 49 50 50 47 45 45 47 47 45 43 43 43 44 40 41 45 55 55 46 50 53 51 47 47 45 43 42 41 42 40 42 45
36 38 40 41 41 41 43 45 45 46 48 51 51 49 46 43 43 45 45 44 44 43 44 41 39 41 48 48 43 47 49 48 45 43 42 41 42 42 42 43 42 41 41
38 41 42 42 42 42 43 45 47 47 49 51 49 48 47 44 42 42 42 43 44 43 42 39 44 45 49 40 38 50 49 43 38 36 37 38 38 39 40 42 40 37 30
40 42 42 43 43 42 42 43 46 48 48 47 47 47 46 44 42 41 41 44 44 41 39 40 44 47 45 40 39 39 38 31 30 32 34 35 37 38 40 39 32 28 27
41 41 42 42 42 44 43 44 45 43 43 46 45 44 44 44 43 44 45 46 45 44 47 42 42 44 42 41 40 39 31 28 27 31 34 36 38 36 34 30 26 24 23
42 42 43 42 43 44 45 46 42 42 43 42 41 40 40 41 42 44 45 47 47 53 47 37 39 42 40 34 33 31 28 27 28 30 31 33 35 30 27 23 21 21 14
41 42 42 43 43 44 45 46 49 45 42 41 39 40 41 42 44 44 45 46 50 49 42 34 43 34 21 29 28 26 26 26 28 28 31 32 28 23 21 19 17 16 15
40 41 41 42 42 43 43 44 44 46 48 44 39 40 42 44 43 43 43 47 43 42 36 38 19 24 28 27 26 24 26 25 26 27 27 25 21 18 15 14 14 14 10
40 40 40 40 41 41 42 42 43 43 42 41 39 40 41 41 39 38 45 40 39 35 33 21 24 27 26 26 25 23 22 23 26 24 20 18 16 14 12 11 12 10 7
39 39 41 41 41 41 41 42 43 42 41 40 39 41 41 40 38 41 40 37 29 18 16 24 25 26 26 25 23 22 22 23 20 16 16 13 11 10 10 11 8 8 8
39 39 40 40 40 40 41 41 41 40 41 40 38 38 40 40 37 34 32 16 16 13 25 25 26 26 24 24 23 22 22 17 13 9 7 8 5 4 5 6 7 10 12
38 39 39 40 40 41 40 40 41 40 40 38 38 38 38 36 31 28 15 16 14 21 23 25 25 24 24 22 20 21 15 12 8 5 4 4 4 5 8 13 17 17 18
38 38 39 39 39 40 41 40 40 39 38 37 37 38 36 34 31 19 14 12 14 24 24 24 23 23 21 19 19 14 11 8 5 4 4 5 6 16 21 21 21 21 21
37 38 39 40 40 41 41 41 39 38 37 36 36 36 37 39 34 17 18 14 23 22 23 22 21 20 18 20 15 10 6 5 5 6 7 10 19 23 24 24 23 22 21
38 39 39 40 40 41 40 39 37 36 35 33 32 32 30 38 31 21 20 20 22 22 21 20 18 17 19 16 10 7 5 5 8 11 17 22 27 27 27 25 24 24 23
38 39 39 39 38 38 38 37 35 32 30 29 29 24 25 30 25 20 19 22 21 21 20 18 16 18 15 8 5 4 4 7 12 15 19 22 25 28 27 26 25 26 26
Wind_Direction
351 350 349 347 346 346 346 345 344 343 342 341 340 339 339 337 337 335 333 332 330 328 328 326 324 323 321 321 320 319 316 314 310 309 311 310 309 308 306 303 300 296 293
348 346 345 345 346 345 345 344 344 343 343 341 340 339 338 337 336 335 333 332 331 329 328 327 325 325 322 322 319 317 315 314 313 310 310 311 311 309 306 303 301 298 294
345 344 344 344 345 344 344 344 344 342 341 340 340 339 338 337 336 335 333 332 331 328 328 326 323 322 320 319 318 316 315 313 312 310 308 309 308 309 307 305 302 299 296
344 344 344 344 343 343 343 343 342 341 340 340 340 339 338 337 336 336 334 332 330 328 327 324 322 321 319 318 316 315 313 312 311 309 308 307 307 307 306 304 301 299 294
345 344 343 343 343 342 342 341 341 341 341 340 339 339 339 338 338 335 333 331 329 327 325 324 322 319 318 317 316 314 313 312 311 310 308 307 306 305 303 303 300 297 293
343 342 342 342 342 341 342 341 341 341 340 340 339 339 338 338 336 335 333 331 329 327 325 323 322 320 319 317 315 314 312 312 310 309 307 306 305 305 304 301 300 296 289
342 341 341 341 341 342 342 341 341 340 340 340 340 339 338 337 336 334 333 331 329 327 326 325 324 324 322 320 317 315 314 312 311 309 307 308 307 306 305 302 298 294 288
340 340 341 342 342 342 341 341 341 340 340 339 339 338 337 337 336 335 333 332 331 330 330 330 330 328 327 325 321 318 317 315 313 312 310 310 309 309 307 303 299 292 287
340 341 342 342 341 341 341 341 341 340 339 339 339 338 337 337 337 337 336 335 334 333 334 334 335 333 332 328 326 322 318 317 316 311 307 306 308 304 302 303 302 295 286
341 342 342 342 342 341 341 340 340 340 339 339 338 338 338 338 339 339 339 338 337 338 339 338 337 336 334 331 327 326 321 316 311 307 310 311 312 309 302 304 302 293 290
343 342 343 343 342 341 340 340 340 339 339 338 338 339 339 340 340 340 340 341 341 340 341 340 341 340 339 333 329 332 323 305 305 310 305 306 307 308 307 305 304 295 287
343 343 342 342 342 341 340 340 340 340 339 338 338 339 340 341 341 341 341 341 341 341 340 341 341 344 341 340 340 308 305 308 310 299 297 296 297 299 299 299 291 286 286
342 341 340 341 341 341 341 340 340 340 339 339 339 340 341 342 343 343 343 342 342 342 341 341 341 341 340 344 344 329 319 328 296 290 291 290 290 288 291 296 290 279 255
339 339 340 340 340 341 341 341 340 340 340 340 340 340 341 343 344 345 344 342 343 344 343 343 342 340 342 344 345 346 345 292 288 288 289 287 289 289 293 291 276 267 256
339 339 339 340 340 341 341 341 341 341 342 341 341 341 341 342 343 343 342 341 342 342 341 341 343 343 345 346 347 347 296 292 289 292 292 292 293 288 286 279 265 259 246
338 339 340 340 341 340 340 340 342 342 343 343 342 343 343 341 342 342 341 341 340 336 340 344 344 345 348 348 300 298 296 295 293 295 293 292 291 285 280 270 259 253 203
339 340 340 340 340 339 340 340 340 343 344 345 345 344 344 342 343 342 342 342 340 340 343 349 341 351 302 298 297 295 295 296 297 296 296 293 289 280 272 263 252 248 5
340 340 340 339 339 339 340 341 341 342 342 344 347 346 344 343 344 343 344 342 346 348 350 347 303 297 297 296 296 295 297 299 301 300 298 293 286 278 267 253 252 328 340
340 340 339 339 340 340 341 342 342 343 343 343 344 345 346 346 346 347 344 348 348 352 354 298 295 296 295 295 296 297 301 304 304 301 296 292 289 282 280 283 335 349 296
340 339 339 339 340 341 342 342 342 343 343 344 345 345 346 347 350 347 349 351 356 353 306 294 295 295 294 295 297 301 305 306 302 298 299 298 301 309 327 340 312 294 276
339 339 340 340 341 341 341 341 342 343 343 343 344 346 346 347 349 352 355 345 349 321 294 294 295 295 294 296 300 305 305 300 295 291 285 295 274 242 226 239 267 300 318
339 339 340 339 339 340 341 341 342 342 343 343 344 346 347 349 352 356 341 350 348 292 291 293 293 293 295 297 304 305 298 293 286 269 244 205 209 233 277 323 344 350 349
339 338 338 338 339 339 340 341 342 342 343 344 345 345 347 350 353 355 309 325 300 292 293 293 292 294 295 302 303 291 285 278 258 219 208 205 251 333 358 3 6 9 13
338 337 337 337 338 339 339 340 342 343 344 344 345 345 344 340 346 295 291 293 290 291 292 291 292 294 300 304 295 283 266 253 184 162 149 120 82 61 40 30 24 21 17
337 336 337 337 337 338 339 340 342 343 344 345 347 348 351 305 294 287 286 286 288 291 291 292 293 299 303 300 288 273 271 150 131 118 98 77 48 36 32 32 32 33 34
336 336 336 337 338 339 339 341 342 345 346 348 350 354 287 290 286 284 283 288 289 290 291 292 297 302 301 287 261 271 151 134 118 107 98 87 77 60 61 74 85 81 73